Time,TemperatureF,DewpointF,PressureIn,WindDirection,WindDirectionDegrees,WindSpeedMPH,WindSpeedGustMPH,Humidity,HourlyPrecipIn,Conditions,Clouds,dailyrainin,SoftwareType,DateUTC
2014-12-19 00:00:00,51.9,45.9,30.14,South,171,0.0,0.0,80,0.00,,---,0.00,VWS V14.01,2014-12-19 06:00:00,
2014-12-19 00:05:00,52.5,45.2,30.15,South,171,0.0,0.0,76,0.00,,---,0.00,VWS V14.01,2014-12-19 06:05:00,
2014-12-19 00:10:00,52.9,45.2,30.16,South,171,0.0,0.0,75,0.00,,---,0.00,VWS V14.01,2014-12-19 06:10:00,
2014-12-19 00:15:00,53.2,44.8,30.15,South,177,0.0,0.0,73,0.00,,---,0.00,VWS V14.01,2014-12-19 06:15:00,
2014-12-19 00:20:00,53.3,44.9,30.14,South,177,0.0,0.0,73,0.00,,---,0.00,VWS V14.01,2014-12-19 06:20:00,
2014-12-19 00:25:00,53.4,44.6,30.13,NE,42,0.0,0.0,72,0.00,,---,0.00,VWS V14.01,2014-12-19 06:25:00,
2014-12-19 00:30:00,53.5,44.7,30.14,NE,42,0.0,0.0,72,0.00,,---,0.00,VWS V14.01,2014-12-19 06:30:00,
2014-12-19 00:35:00,53.6,45.2,30.14,NE,42,0.0,0.0,73,0.00,,---,0.00,VWS V14.01,2014-12-19 06:35:00,
2014-12-19 00:40:00,53.6,44.8,30.13,NE,42,0.0,0.0,72,0.00,,---,0.00,VWS V14.01,2014-12-19 06:40:00,
2014-12-19 00:45:00,53.7,44.5,30.12,NE,42,0.0,0.0,71,0.00,,---,0.00,VWS V14.01,2014-12-19 06:45:00,
2014-12-19 00:50:00,53.8,44.3,30.12,NE,42,0.0,0.0,70,0.00,,---,0.00,VWS V14.01,2014-12-19 06:50:00,
2014-12-19 00:55:00,53.9,44.3,30.12,NE,42,0.0,0.0,70,0.00,,---,0.00,VWS V14.01,2014-12-19 06:55:00,
2014-12-19 01:00:00,54.0,44.1,30.13,NE,38,0.0,0.0,69,0.00,,---,0.00,VWS V14.01,2014-12-19 07:00:00,
2014-12-19 01:05:00,54.0,44.5,30.13,NE,38,0.0,0.0,70,0.00,,---,0.00,VWS V14.01,2014-12-19 07:05:00,
2014-12-19 01:10:00,54.1,44.5,30.13,NE,38,0.0,0.0,70,0.00,,---,0.00,VWS V14.01,2014-12-19 07:10:00,
2014-12-19 01:15:00,54.1,44.5,30.14,NE,38,0.0,0.0,70,0.00,,---,0.00,VWS V14.01,2014-12-19 07:15:00,
2014-12-19 01:20:00,54.1,44.5,30.14,NE,38,0.0,0.0,70,0.00,,---,0.00,VWS V14.01,2014-12-19 07:20:00,
2014-12-19 01:25:00,54.1,44.5,30.15,NE,38,0.0,0.0,70,0.00,,---,0.00,VWS V14.01,2014-12-19 07:25:00,
2014-12-19 01:30:00,54.1,44.5,30.14,NE,38,0.0,0.0,70,0.00,,---,0.00,VWS V14.01,2014-12-19 07:30:00,
2014-12-19 01:35:00,54.1,44.5,30.14,NE,38,0.0,0.0,70,0.00,,---,0.00,VWS V14.01,2014-12-19 07:35:00,
2014-12-19 01:40:00,54.1,44.5,30.14,NE,38,0.0,0.0,70,0.00,,---,0.00,VWS V14.01,2014-12-19 07:40:00,
2014-12-19 01:45:00,54.1,44.5,30.13,NE,38,0.0,0.0,70,0.00,,---,0.00,VWS V14.01,2014-12-19 07:45:00,
2014-12-19 01:50:00,54.0,44.5,30.13,NE,38,0.0,0.0,70,0.00,,---,0.00,VWS V14.01,2014-12-19 07:50:00,
2014-12-19 01:55:00,54.0,44.5,30.12,NE,38,0.0,0.0,70,0.00,,---,0.00,VWS V14.01,2014-12-19 07:55:00,
2014-12-19 02:01:00,53.9,44.3,30.12,NE,38,0.0,0.0,70,0.00,,---,0.00,VWS V14.01,2014-12-19 08:01:00,
2014-12-19 02:06:00,53.8,44.6,30.12,NE,38,0.0,3.0,71,0.00,,---,0.00,VWS V14.01,2014-12-19 08:06:00,
2014-12-19 02:11:00,53.7,44.5,30.12,NE,38,0.0,0.0,71,0.00,,---,0.00,VWS V14.01,2014-12-19 08:11:00,
2014-12-19 02:16:00,53.6,44.4,30.12,NE,38,0.0,0.0,71,0.00,,---,0.00,VWS V14.01,2014-12-19 08:16:00,
2014-12-19 02:21:00,53.5,44.3,30.12,NE,38,0.0,0.0,71,0.00,,---,0.00,VWS V14.01,2014-12-19 08:21:00,
2014-12-19 02:26:00,53.5,44.3,30.12,NE,38,0.0,0.0,71,0.00,,---,0.00,VWS V14.01,2014-12-19 08:26:00,
2014-12-19 02:31:00,53.5,44.3,30.12,NE,38,0.0,0.0,71,0.00,,---,0.00,VWS V14.01,2014-12-19 08:31:00,
2014-12-19 02:36:00,53.4,44.2,30.12,NE,38,0.0,0.0,71,0.00,,---,0.00,VWS V14.01,2014-12-19 08:36:00,
2014-12-19 02:41:00,53.4,44.2,30.11,NE,36,0.0,0.0,71,0.00,,---,0.00,VWS V14.01,2014-12-19 08:41:00,
2014-12-19 02:46:00,53.4,43.9,30.11,NE,49,0.0,0.0,70,0.00,,---,0.00,VWS V14.01,2014-12-19 08:46:00,
2014-12-19 02:51:00,53.4,43.9,30.11,NE,35,0.0,0.0,70,0.00,,---,0.00,VWS V14.01,2014-12-19 08:51:00,
2014-12-19 02:56:00,53.4,43.9,30.11,NE,35,0.0,0.0,70,0.00,,---,0.00,VWS V14.01,2014-12-19 08:56:00,
2014-12-19 03:01:00,53.3,43.8,30.12,NE,35,0.0,0.0,70,0.00,,---,0.00,VWS V14.01,2014-12-19 09:01:00,
2014-12-19 03:06:00,53.4,43.9,30.12,NNE,32,0.0,0.0,70,0.00,,---,0.00,VWS V14.01,2014-12-19 09:06:00,
2014-12-19 03:11:00,53.4,43.5,30.11,NE,36,0.0,0.0,69,0.00,,---,0.00,VWS V14.01,2014-12-19 09:11:00,
2014-12-19 03:16:00,53.4,43.5,30.11,NE,37,0.0,0.0,69,0.00,,---,0.00,VWS V14.01,2014-12-19 09:16:00,
2014-12-19 03:21:00,53.4,43.5,30.11,NNE,26,0.0,0.0,69,0.00,,---,0.00,VWS V14.01,2014-12-19 09:21:00,